Location: Burbank
(38.7788°N, 114.0429°W)
Time: 11:39:46
(UTC+00:00)

Vanguard 1 - All Passes

Search period start: 15 May 2026 00:00
Search period end: 25 May 2026 00:00
Orbit: 654 x 3817 km, 34.2° (Epoch: 14 May)

Date Brightness Start Highest point End Pass type
(mag) Time Alt. Az. Time Alt. Az. Time Alt. Az.
15 May - 02:12:58 10° W 02:23:42 73° S 02:43:25 10° ESE daylight
15 May - 04:33:35 10° W 04:47:58 57° SSW 05:09:54 10° SE visible
15 May - 06:57:16 10° W 07:12:31 30° SW 07:30:37 10° SSE visible
15 May - 21:55:47 10° SSW 22:00:53 26° SE 22:08:34 10° E daylight
16 May - 00:12:53 10° WSW 00:20:41 65° SSE 00:35:29 10° E daylight
16 May - 02:32:13 10° W 02:43:16 71° S 03:03:15 10° ESE daylight
16 May - 04:53:06 10° W 05:07:30 50° SSW 05:28:49 10° SE visible
16 May - 07:18:11 10° W 07:31:49 23° SW 07:47:31 10° S visible
16 May - 22:14:08 10° SSW 22:19:41 34° SE 22:28:39 10° E daylight
17 May - 00:31:58 10° WSW 00:40:01 69° S 00:55:25 10° E daylight
17 May - 02:51:30 10° W 03:02:49 66° SSW 03:22:57 10° ESE visible
17 May - 05:12:46 10° W 05:27:01 42° SSW 05:47:24 10° SSE visible
17 May - 07:40:15 10° WSW 07:51:07 17° SW 08:03:08 10° SSW visible
17 May - 22:32:46 10° SW 22:38:37 43° SSE 22:48:34 10° E daylight
18 May - 00:51:07 10° WSW 00:59:25 71° S 01:15:20 10° E daylight
18 May - 03:10:49 10° W 03:22:22 61° SSW 03:42:28 10° SE visible
18 May - 05:32:39 10° W 05:46:30 35° SSW 06:05:33 10° SSE visible
18 May - 08:06:06 10° WSW 08:10:26 11° SW 08:14:56 10° SW visible
18 May - 20:36:22 10° SSE 20:38:52 13° SE 20:41:50 10° ESE daylight
18 May - 22:51:37 10° SW 22:57:40 52° SSE 23:08:25 10° E daylight
19 May - 01:10:17 10° W 01:18:51 70° S 01:35:12 10° ESE daylight
19 May - 03:30:11 10° W 03:41:54 54° SSW 04:01:43 10° SE visible
19 May - 05:52:53 10° W 06:05:57 28° SW 06:23:10 10° SSE visible
19 May - 20:53:49 10° S 20:57:36 20° SE 21:02:37 10° E daylight
19 May - 23:10:35 10° WSW 23:16:50 59° SSE 23:28:14 10° E daylight
20 May - 01:29:29 10° W 01:38:18 68° S 01:55:00 10° ESE daylight
20 May - 03:49:39 10° W 04:01:26 47° SSW 04:20:41 10° SE visible
20 May - 06:13:43 10° W 06:25:23 22° SW 06:40:00 10° S visible
20 May - 21:12:03 10° SSW 21:16:26 27° SSE 21:22:43 10° E daylight
20 May - 23:29:38 10° WSW 23:36:05 65° S 23:48:02 10° E daylight
21 May - 01:48:43 10° W 01:57:45 63° SSW 02:14:41 10° ESE daylight
21 May - 04:09:15 10° W 04:20:57 39° SSW 04:39:16 10° SSE visible
21 May - 06:35:48 10° WSW 06:44:51 16° SW 06:55:27 10° SSW visible
21 May - 21:30:37 10° SW 21:35:21 36° SSE 21:42:35 10° E daylight
21 May - 23:48:44 10° WSW 23:55:24 67° S 00:07:50 10° E daylight
22 May - 02:07:59 10° W 02:17:14 57° SSW 02:34:10 10° SE daylight
22 May - 04:29:06 10° W 04:40:28 32° SSW 04:57:25 10° SSE visible
22 May - 21:49:25 10° SW 21:54:23 45° SSE 22:02:18 10° E daylight
23 May - 00:07:54 10° W 00:14:44 66° S 00:27:36 10° ESE daylight
23 May - 02:27:19 10° W 02:36:42 49° SSW 02:53:24 10° SE daylight
23 May - 04:49:20 10° W 05:00:00 25° SSW 05:14:59 10° SSE visible
23 May - 19:51:46 10° S 19:54:30 15° SE 19:57:40 10° ESE daylight
23 May - 22:08:22 10° WSW 22:13:30 53° SSE 22:21:59 10° E daylight
24 May - 00:27:04 10° W 00:34:06 63° S 00:47:18 10° ESE daylight
24 May - 02:46:45 10° W 02:56:11 42° SSW 03:12:21 10° SE daylight
24 May - 05:10:14 10° WSW 05:19:32 19° SW 05:31:40 10° S visible
24 May - 20:09:49 10° SSW 20:13:24 22° SSE 20:17:50 10° E daylight
24 May - 22:27:25 10° WSW 22:32:42 59° S 22:41:39 10° E daylight
